| time (UTC) | temp C | wind direction | speed KPH | gust KPH | rain 1hr cm | rain 24hr cm | rain mn cm | humidity % | barometer mb |
| 20260904203006 | 17 | 331 | 22.5 | 32.2 | 0.00 | 0.00 | 0.00 | 44 | 1001.3 |
| 20260904201507 | 17 | 360 | 22.5 | 33.8 | 0.00 | 0.00 | 0.00 | 45 | 1001.2 |
| 20260904200004 | 16 | 325 | 24.1 | 32.2 | 0.00 | 0.00 | 0.00 | 48 | 1001.3 |
| 20260904194507 | 15 | 360 | 19.3 | 29.0 | 0.00 | 0.00 | 0.00 | 51 | 1000.8 |
| 20260904193003 | 14 | 317 | 17.7 | 30.6 | 0.00 | 0.00 | 0.00 | 53 | 1000.5 |
| 20260904191501 | 14 | 338 | 22.5 | 33.8 | 0.00 | 0.00 | 0.00 | 53 | 1000.4 |
| 20260904190003 | 13 | 349 | 20.9 | 29.0 | 0.00 | 0.00 | 0.00 | 54 | 1000.3 |
| 20260904184501 | 14 | 323 | 19.3 | 27.4 | 0.00 | 0.00 | 0.00 | 54 | 1000.1 |
| 20260904183112 | 14 | 348 | 19.3 | 29.0 | 0.00 | 0.00 | 0.00 | 53 | 999.9 |
| 20260904181602 | 13 | 360 | 19.3 | 29.0 | 0.00 | 0.00 | 0.00 | 56 | 999.9 |
| 20260904180106 | 13 | 360 | 19.3 | 27.4 | 0.00 | 0.00 | 0.00 | 57 | 999.8 |
| 20260904174607 | 12 | 36 | 22.5 | 29.0 | 0.00 | 0.00 | 0.00 | 58 | 999.5 |
| 20260904173116 | 12 | 22 | 19.3 | 27.4 | 0.00 | 0.00 | 0.00 | 58 | 999.4 |
| 20260904171600 | 12 | 44 | 19.3 | 25.7 | 0.00 | 0.00 | 0.00 | 58 | 999.0 |
| 20260904164555 | 16 | 265 | 9.7 | 17.7 | 0.00 | 0.00 | 0.00 | 47 | 999.1 |
| 20260904163050 | 16 | 232 | 1.6 | 6.4 | 0.00 | 0.00 | 0.00 | 46 | 998.9 |
| 20260904161550 | 16 | 217 | 4.8 | 19.3 | 0.00 | 0.00 | 0.00 | 47 | 998.8 |
| 20260904160049 | 17 | 179 | 9.7 | 16.1 | 0.00 | 0.00 | 0.00 | 43 | 998.8 |
| 20260904154549 | 17 | 176 | 12.9 | 27.4 | 0.00 | 0.00 | 0.00 | 40 | 998.8 |
| 20260904153056 | 18 | 156 | 16.1 | 32.2 | 0.00 | 0.00 | 0.00 | 38 | 998.2 |
| 20260904151549 | 18 | 141 | 27.4 | 37.0 | 0.00 | 0.00 | 0.00 | 39 | 997.5 |
| 20260904150051 | 17 | 82 | 20.9 | 30.6 | 0.00 | 0.00 | 0.00 | 40 | 996.6 |
| 20260904144546 | 17 | 84 | 22.5 | 43.5 | 0.00 | 0.00 | 0.00 | 40 | 997.1 |
| 20260904143042 | 17 | 97 | 20.9 | 37.0 | 0.00 | 0.00 | 0.00 | 40 | 997.1 |
| 20260904141542 | 16 | 90 | 22.5 | 33.8 | 0.00 | 0.00 | 0.00 | 41 | 997.4 |
| 20260904140042 | 16 | 101 | 24.1 | 32.2 | 0.00 | 0.00 | 0.00 | 41 | 997.4 |
| 20260904134539 | 16 | 123 | 27.4 | 35.4 | 0.00 | 0.00 | 0.00 | 41 | 997.5 |
| 20260904133038 | 16 | 117 | 19.3 | 30.6 | 0.00 | 0.00 | 0.00 | 41 | 997.4 |
| 20260904131537 | 16 | 84 | 16.1 | 24.1 | 0.00 | 0.00 | 0.00 | 41 | 997.5 |
| 20260904130037 | 16 | 132 | 16.1 | 30.6 | 0.00 | 0.00 | 0.00 | 41 | 997.5 |
| 20260904124548 | 16 | 82 | 20.9 | 29.0 | 0.00 | 0.00 | 0.00 | 41 | 997.2 |
| 20260904123036 | 16 | 61 | 17.7 | 29.0 | 0.00 | 0.00 | 0.00 | 41 | 997.2 |
| 20260904121534 | 16 | 97 | 14.5 | 27.4 | 0.00 | 0.00 | 0.00 | 41 | 997.3 |
| 20260904120032 | 16 | 88 | 17.7 | 27.4 | 0.00 | 0.00 | 0.00 | 40 | 997.3 |
| 20260904114539 | 17 | 121 | 16.1 | 30.6 | 0.00 | 0.00 | 0.00 | 39 | 997.4 |
| 20260904113039 | 17 | 80 | 24.1 | 35.4 | 0.00 | 0.00 | 0.00 | 38 | 997.4 |
| 20260904111530 | 17 | 75 | 22.5 | 38.6 | 0.00 | 0.00 | 0.00 | 39 | 997.5 |
| 20260904110028 | 18 | 105 | 27.4 | 43.5 | 0.00 | 0.00 | 0.00 | 37 | 997.7 |
| 20260904104529 | 17 | 82 | 29.0 | 45.1 | 0.00 | 0.00 | 0.00 | 38 | 997.7 |
| 20260904103035 | 17 | 82 | 30.6 | 43.5 | 0.00 | 0.00 | 0.00 | 37 | 997.7 |
| 20260904101526 | 18 | 81 | 35.4 | 46.7 | 0.00 | 0.00 | 0.00 | 37 | 998.0 |
| 20260904100023 | 17 | 81 | 32.2 | 46.7 | 0.00 | 0.00 | 0.00 | 39 | 998.1 |
| 20260904094521 | 17 | 88 | 30.6 | 43.5 | 0.00 | 0.00 | 0.00 | 40 | 998.2 |
| 20260904093020 | 17 | 82 | 27.4 | 43.5 | 0.00 | 0.00 | 0.00 | 41 | 998.4 |
| 20260904091516 | 17 | 92 | 25.7 | 40.2 | 0.00 | 0.00 | 0.00 | 42 | 998.7 |
| 20260904090014 | 16 | 91 | 20.9 | 30.6 | 0.00 | 0.00 | 0.00 | 43 | 998.9 |
| 20260904084511 | 16 | 73 | 11.3 | 19.3 | 0.00 | 0.00 | 0.00 | 46 | 999.1 |
| 20260904083009 | 15 | 93 | 9.7 | 19.3 | 0.00 | 0.00 | 0.00 | 47 | 999.3 |
| 20260904081507 | 15 | 103 | 12.9 | 19.3 | 0.00 | 0.00 | 0.00 | 47 | 999.4 |
| 20260904080006 | 15 | 90 | 14.5 | 20.9 | 0.00 | 0.00 | 0.00 | 47 | 999.5 |
| 20260904074503 | 14 | 92 | 12.9 | 16.1 | 0.00 | 0.00 | 0.00 | 50 | 999.7 |
| 20260904073107 | 14 | 98 | 9.7 | 12.9 | 0.00 | 0.00 | 0.00 | 50 | 1000.1 |
| 20260904071601 | 15 | 82 | 1.6 | 4.8 | 0.00 | 0.00 | 0.00 | 50 | 1000.2 |
| 20260904070109 | 14 | 80 | 3.2 | 6.4 | 0.00 | 0.00 | 0.00 | 50 | 1000.3 |
| 20260904064556 | 15 | 86 | 4.8 | 9.7 | 0.00 | 0.00 | 0.00 | 50 | 1000.2 |
| 20260904063057 | 14 | 87 | 4.8 | 11.3 | 0.00 | 0.00 | 0.00 | 51 | 1000.5 |
| 20260904061600 | 12 | 89 | 6.4 | 12.9 | 0.00 | 0.00 | 0.00 | 54 | 1000.8 |
| 20260904060047 | 13 | 126 | 8.0 | 17.7 | 0.00 | 0.00 | 0.00 | 52 | 1001.0 |
| 20260904054549 | 13 | 89 | 11.3 | 17.7 | 0.00 | 0.00 | 0.00 | 50 | 1001.2 |
| 20260904053046 | 14 | 86 | 14.5 | 19.3 | 0.00 | 0.00 | 0.00 | 50 | 1001.4 |
| 20260904051545 | 15 | 55 | 1.6 | 6.4 | 0.00 | 0.00 | 0.00 | 49 | 1001.4 |
| 20260904050045 | 15 | 46 | 3.2 | 11.3 | 0.00 | 0.00 | 0.00 | 49 | 1001.3 |
| 20260904044544 | 14 | 34 | 4.8 | 6.4 | 0.00 | 0.00 | 0.00 | 53 | 1001.0 |
| 20260904043056 | 14 | 43 | 4.8 | 9.7 | 0.00 | 0.00 | 0.00 | 50 | 1001.1 |
| 20260904041543 | 14 | 51 | 4.8 | 8.0 | 0.00 | 0.00 | 0.00 | 50 | 1001.1 |
| 20260904040042 | 14 | 36 | 4.8 | 8.0 | 0.00 | 0.00 | 0.00 | 49 | 1001.4 |
| 20260904034549 | 13 | 40 | 6.4 | 8.0 | 0.00 | 0.00 | 0.00 | 52 | 1001.3 |
| 20260904033042 | 13 | 33 | 4.8 | 9.7 | 0.00 | 0.00 | 0.00 | 50 | 1001.4 |
| 20260904031544 | 14 | 27 | 6.4 | 9.7 | 0.00 | 0.00 | 0.00 | 49 | 1001.5 |
| 20260904030040 | 13 | 36 | 6.4 | 12.9 | 0.00 | 0.00 | 0.00 | 51 | 1001.5 |
| 20260904024538 | 13 | 34 | 6.4 | 12.9 | 0.00 | 0.00 | 0.00 | 51 | 1001.3 |
| 20260904023037 | 13 | 26 | 6.4 | 9.7 | 0.00 | 0.00 | 0.00 | 50 | 1001.0 |
| 20260904021540 | 15 | 18 | 4.8 | 9.7 | 0.00 | 0.00 | 0.00 | 47 | 1000.9 |
| 20260904020036 | 16 | 318 | 6.4 | 12.9 | 0.00 | 0.00 | 0.00 | 46 | 1000.8 |
| 20260904014544 | 16 | 317 | 4.8 | 12.9 | 0.00 | 0.00 | 0.00 | 45 | 1000.6 |
| 20260904013035 | 16 | 297 | 8.0 | 19.3 | 0.00 | 0.00 | 0.00 | 44 | 1000.7 |
| 20260904011535 | 17 | 261 | 14.5 | 27.4 | 0.00 | 0.00 | 0.00 | 41 | 1000.8 |
| 20260904010033 | 18 | 259 | 19.3 | 27.4 | 0.00 | 0.03 | 0.00 | 39 | 1000.9 |
| 20260904004535 | 18 | 256 | 16.1 | 29.0 | 0.00 | 0.03 | 0.00 | 40 | 1000.8 |
| 20260904003033 | 18 | 283 | 17.7 | 30.6 | 0.00 | 0.03 | 0.00 | 40 | 1000.7 |
| 20260904001529 | 18 | 250 | 27.4 | 33.8 | 0.00 | 0.03 | 0.00 | 38 | 1000.6 |
| 20260904000107 | 18 | 261 | 29.0 | 43.5 | 0.00 | 0.15 | 0.00 | 39 | 1000.6 |
| 20260903234527 | 18 | 251 | 19.3 | 33.8 | 0.00 | 0.15 | 0.00 | 37 | 1000.4 |
| 20260903233026 | 18 | 269 | 22.5 | 40.2 | 0.00 | 0.15 | 0.00 | 38 | 1000.5 |
| 20260903231525 | 18 | 273 | 30.6 | 45.1 | 0.00 | 0.15 | 0.00 | 40 | 1000.4 |
| 20260903230026 | 19 | 217 | 29.0 | 40.2 | 0.00 | 0.15 | 0.00 | 39 | 1000.2 |
| 20260903224536 | 19 | 258 | 29.0 | 46.7 | 0.00 | 0.15 | 0.00 | 39 | 1000.0 |
| 20260903223018 | 19 | 263 | 30.6 | 43.5 | 0.00 | 0.15 | 0.00 | 40 | 999.7 |
| 20260903221517 | 19 | 227 | 30.6 | 41.8 | 0.00 | 0.15 | 0.00 | 41 | 999.7 |
| 20260903220017 | 20 | 279 | 25.7 | 35.4 | 0.00 | 0.15 | 0.00 | 41 | 999.3 |
| 20260903214521 | 20 | 249 | 25.7 | 41.8 | 0.00 | 0.15 | 0.00 | 42 | 999.3 |
| 20260903213024 | 20 | 248 | 24.1 | 41.8 | 0.00 | 0.15 | 0.00 | 41 | 999.3 |
| 20260903211510 | 19 | 281 | 20.9 | 48.3 | 0.00 | 0.15 | 0.00 | 43 | 999.1 |
| 20260903210009 | 18 | 265 | 16.1 | 37.0 | 0.00 | 0.15 | 0.00 | 43 | 999.0 |
| 20260903204508 | 18 | 229 | 22.5 | 30.6 | 0.00 | 0.15 | 0.00 | 42 | 999.1 |